Hourly Data Report for June 11, 2003

SHERBROOKE A
QUEBEC

45°26'00.000" N
71°41'00.000" W
241.40 m
7028124
71610
YSC

Download Data

Hourly Data (June 2003)
Hourly Data Report for June 11, 2003
TIME
LST
Temp Definition
°C
Dew Point Definition
°C
Rel Hum Definition
%
Precip. Amount Definition
mm

Wind Dir Definition
10's deg

Wind Spd Definition
km/h
Visibility Definition
km
Stn Press Definition
kPa
Hmdx Definition


Wind Chill Definition


Weather Definition


00:00 7.2 5.4 88   9 6 15.0 98.73      
01:00 8.9 6.1 83   10 9 15.0 98.66      
02:00 8.8 6.5 85   11 6 15.0 98.64      
03:00 8.9 6.2 83   6 6 15.0 98.57      
04:00 9.6 6.9 83   9 4 15.0 98.53      
05:00 9.3 7.9 91   3 4 15.0 98.52     Rain
06:00 10.4 8.6 89   10 15 15.0 98.40     Rain
07:00 11.9 10.3 90   4 6 24.1 98.30     Mostly Cloudy
08:00 15.3 10.8 75   12 6 24.1 98.19     Mostly Cloudy
09:00 17.6 11.8 69   13 4 24.1 98.10     Mostly Cloudy
10:00 19.2 12.1 63   15 15 24.1 97.98     Mostly Cloudy
11:00 19.3 12.9 66   17 11 24.1 97.89     Cloudy
12:00 18.7 14.0 74   19 6 24.1 97.83     Rain Showers
13:00 17.7 15.2 85   20 15 24.1 97.80     Rain Showers
14:00 17.7 15.8 89   20 11 16.1 97.74     Rain Showers
15:00 18.4 16.5 89   23 7 19.3 97.75     Cloudy
16:00 18.8 16.6 87   22 13 19.3 97.75     Cloudy
17:00 18.5 17.3 93   24 11 6.4 97.79      
18:00 18.4 17.1 92   23 9 8.0 97.81     Rain
19:00 18.1 17.0 93   22 4 6.4 97.82      
20:00 15.3 14.6 96   33 13 11.3 97.96     Rain
21:00 13.2 12.5 96   32 19 12.9 98.12      
22:00 12.7 11.8 94   32 6 15.0 98.20      
23:00 12.6 11.9 95   27 6 15.0 98.26      

Notes on Data Quality.

Legend

  • E = Estimated
  • M = Missing
  • NA = Not Available*
  • [empty] = Indicates an unobserved value
Date modified: